Weather History for KDBN - May, 2012

Change the Weather History Date:

Thursday, May 31, 2012

  Actual Average Record
Temperature  
Mean Temperature 76 °F -  
Max Temperature 93 °F 88 °F 102 °F (1953)
Min Temperature 60 °F 62 °F 43 °F (1984)
Cooling Degree Days 12    
Growing Degree Days 26 (Base 50)    
Moisture  
Dew Point 64 °F    
Average Humidity 69    
Maximum Humidity 100    
Minimum Humidity 34    
Precipitation  
Precipitation 0.00 in - - ()
Sea Level Pressure  
Sea Level Pressure 29.86 in    
Wind  
Wind Speed 3 mph (SE)    
Max Wind Speed 18 mph    
Max Gust Speed 25 mph    
Visibility 9 miles    
Events Thunderstorm    
Averages and records for this station are not official NWS values.
T = Trace of Precipitation, MM = Missing Value Source: NWS Daily Summary

Daily Weather History Graph

Daily Weather History Graph

Search for Another Location

Airport or City:

Trip Planner

Search our weather history database for the weather conditions in past years. The results will help you decide how hot, cold, wet, or windy it might be!

Date:

Astronomy

May. 31, 2012 Rise Set
Actual Time 6:25 AM EDT 8:34 PM EDT
Civil Twilight 5:57 AM EDT 9:02 PM EDT
Nautical Twilight 5:23 AM EDT 9:36 PM EDT
Astronomical Twilight 4:46 AM EDT 10:13 PM EDT
Moon 4:32 PM EDT (5/31) 3:10 AM EDT (5/31)
Length of Visible Light 15h 04m
Length of Day
14h 08m
Waxing Gibbous, 80% of the Moon is Illuminated
May 31
Waxing Gibbous
Jun 4
Full
Jun 11
Last Quarter
Jun 19
New
Jun 26
First Quarter

Hourly Weather History & Observations

Time (EDT) Temp. Heat Index Dew Point Humidity Pressure Visibility Wind Dir Wind Speed Gust Speed Precip Events Conditions
12:15 AM 66.2 °F - 64.4 °F 94% 29.88 in 7.0 mi Calm Calm - N/A   Clear
12:35 AM 66.2 °F - 66.2 °F 100% 29.87 in 1.8 mi Calm Calm - N/A   Mist
12:55 AM 64.4 °F - 64.4 °F 100% 29.87 in 5.0 mi Calm Calm - N/A   Clear
1:15 AM 66.2 °F - 64.4 °F 94% 29.87 in 7.0 mi Calm Calm - N/A   Clear
1:35 AM 66.2 °F - 64.4 °F 94% 29.87 in 7.0 mi Calm Calm - N/A   Clear
1:55 AM 64.4 °F - 64.4 °F 100% 29.86 in 10.0 mi Calm Calm - N/A   Clear
2:15 AM 64.4 °F - 64.4 °F 100% 29.86 in 5.0 mi Calm Calm - N/A   Clear
2:35 AM 64.4 °F - 64.4 °F 100% 29.86 in 5.0 mi Calm Calm - N/A   Clear
2:55 AM 64.4 °F - 62.6 °F 94% 29.86 in 7.0 mi Calm Calm - N/A   Clear
3:15 AM 64.4 °F - 62.6 °F 94% 29.86 in 7.0 mi Calm Calm - N/A   Clear
3:35 AM 64.4 °F - 62.6 °F 94% 29.86 in 7.0 mi Calm Calm - N/A   Clear
3:55 AM 64.4 °F - 62.6 °F 94% 29.86 in 10.0 mi Calm Calm - N/A   Clear
4:15 AM 64.4 °F - 62.6 °F 94% 29.86 in 7.0 mi Calm Calm - N/A   Clear
4:35 AM 62.6 °F - 62.6 °F 100% 29.86 in 4.0 mi Calm Calm - N/A   Clear
4:55 AM 62.6 °F - 62.6 °F 100% 29.87 in 4.0 mi Calm Calm - N/A   Clear
5:15 AM 62.6 °F - 62.6 °F 100% 29.87 in 5.0 mi Calm Calm - N/A   Clear
5:35 AM 62.6 °F - 62.6 °F 100% 29.87 in 4.0 mi Calm Calm - N/A   Clear
5:55 AM 62.6 °F - 62.6 °F 100% 29.88 in 4.0 mi Calm Calm - N/A   Clear
6:15 AM 60.8 °F - 60.8 °F 100% 29.88 in 5.0 mi Calm Calm - N/A   Clear
6:35 AM 62.6 °F - 60.8 °F 94% 29.88 in 5.0 mi Calm Calm - N/A   Clear
6:55 AM 62.6 °F - 62.6 °F 100% 29.89 in 5.0 mi Calm Calm - N/A   Clear
7:15 AM 64.4 °F - 62.6 °F 94% 29.89 in 7.0 mi Calm Calm - N/A   Clear
7:35 AM 66.2 °F - 64.4 °F 94% 29.89 in 10.0 mi Calm Calm - N/A   Clear
7:55 AM 68.0 °F - 64.4 °F 88% 29.89 in 10.0 mi Calm Calm - N/A   Clear
8:15 AM 69.8 °F - 66.2 °F 88% 29.90 in 10.0 mi NE 3.5 mph - N/A   Clear
8:35 AM 71.6 °F - 66.2 °F 83% 29.90 in 10.0 mi NE 3.5 mph - N/A   Clear
8:55 AM 73.4 °F - 68.0 °F 83% 29.91 in 10.0 mi Calm Calm - N/A   Clear
9:15 AM 73.4 °F - 68.0 °F 83% 29.91 in 10.0 mi NE 3.5 mph - N/A   Clear
9:35 AM 77.0 °F - 68.0 °F 74% 29.90 in 10.0 mi Calm Calm - N/A   Clear
10:15 AM 80.6 °F 83.9 °F 69.8 °F 70% 29.90 in 10.0 mi Calm Calm - N/A   Clear
10:55 AM 86.0 °F 89.4 °F 68.0 °F 55% 29.89 in 10.0 mi ESE 6.9 mph - N/A   Clear
11:15 AM 87.8 °F 91.4 °F 68.0 °F 52% 29.89 in 10.0 mi SE 4.6 mph - N/A   Clear
11:35 AM 87.8 °F 90.4 °F 66.2 °F 49% 29.89 in 10.0 mi East 5.8 mph - N/A   Clear
11:55 AM 89.6 °F 92.2 °F 66.2 °F 46% 29.89 in 10.0 mi SSE 3.5 mph - N/A   Clear
12:15 PM 89.6 °F 90.1 °F 62.6 °F 40% 29.89 in 10.0 mi East 4.6 mph - N/A   Clear
12:35 PM 89.6 °F 90.1 °F 62.6 °F 40% 29.89 in 10.0 mi West 4.6 mph - N/A   Clear
12:55 PM 91.4 °F 93.2 °F 64.4 °F 41% 29.88 in 10.0 mi SSW 9.2 mph - N/A   Scattered Clouds
1:15 PM 89.6 °F 90.1 °F 62.6 °F 40% 29.88 in 10.0 mi South 6.9 mph - N/A   Scattered Clouds
1:35 PM 87.8 °F 89.4 °F 64.4 °F 46% 29.88 in 10.0 mi South 6.9 mph - N/A   Scattered Clouds
1:55 PM 82.4 °F 83.4 °F 62.6 °F 51% 29.87 in 10.0 mi SSW 9.2 mph - N/A   Mostly Cloudy
2:15 PM 84.2 °F 85.6 °F 64.4 °F 51% 29.86 in 10.0 mi SSE 3.5 mph - N/A   Mostly Cloudy
2:35 PM 89.6 °F 90.1 °F 62.6 °F 40% 29.85 in 10.0 mi Calm Calm - N/A   Scattered Clouds
2:55 PM 91.4 °F 93.2 °F 64.4 °F 41% 29.84 in 10.0 mi East 4.6 mph - N/A   Clear
3:15 PM 91.4 °F 93.2 °F 64.4 °F 41% 29.83 in 10.0 mi ESE 8.1 mph - N/A   Scattered Clouds
3:35 PM 89.6 °F 91.1 °F 64.4 °F 43% 29.83 in 10.0 mi ESE 8.1 mph 11.5 mph N/A   Mostly Cloudy
3:55 PM 93.2 °F 94.9 °F 64.4 °F 38% 29.82 in 10.0 mi ESE 9.2 mph - N/A   Scattered Clouds
4:15 PM 91.4 °F 92.1 °F 62.6 °F 38% 29.82 in 10.0 mi SSE 8.1 mph - N/A   Clear
4:35 PM 93.2 °F 94.1 °F 62.6 °F 36% 29.81 in 10.0 mi SE 8.1 mph - N/A   Clear
4:55 PM 93.2 °F 93.3 °F 60.8 °F 34% 29.81 in 10.0 mi SSE 11.5 mph - N/A   Clear
5:15 PM 91.4 °F 92.1 °F 62.6 °F 38% 29.80 in 10.0 mi SE 10.4 mph - N/A   Clear
5:35 PM 91.4 °F 92.1 °F 62.6 °F 38% 29.79 in 10.0 mi SSE 12.7 mph 17.3 mph N/A   Clear
5:55 PM 91.4 °F 92.1 °F 62.6 °F 38% 29.78 in 10.0 mi SSE 10.4 mph - N/A   Clear
6:15 PM 91.4 °F 92.1 °F 62.6 °F 38% 29.79 in 10.0 mi SE 12.7 mph - N/A   Clear
6:35 PM 89.6 °F 90.1 °F 62.6 °F 40% 29.79 in 10.0 mi SE 11.5 mph - N/A   Clear
6:55 PM 89.6 °F 90.1 °F 62.6 °F 40% 29.79 in 10.0 mi SE 9.2 mph - N/A   Mostly Cloudy
7:15 PM 86.0 °F 88.2 °F 66.2 °F 51% 29.80 in 10.0 mi SE 16.1 mph 24.2 mph N/A   Overcast
7:35 PM 82.4 °F 84.6 °F 66.2 °F 58% 29.80 in 10.0 mi SE 18.4 mph 25.3 mph N/A   Mostly Cloudy
7:55 PM 80.6 °F 82.3 °F 64.4 °F 58% 29.81 in 10.0 mi SE 12.7 mph 20.7 mph N/A   Scattered Clouds
8:15 PM 80.6 °F 82.7 °F 66.2 °F 61% 29.81 in 10.0 mi SSE 11.5 mph 17.3 mph N/A   Clear
8:35 PM 80.6 °F 82.7 °F 66.2 °F 61% 29.83 in 10.0 mi SSE 12.7 mph 18.4 mph N/A   Scattered Clouds
8:55 PM 80.6 °F 81.8 °F 62.6 °F 54% 29.86 in 10.0 mi SW 9.2 mph 23.0 mph N/A Thunderstorm Scattered Clouds
9:15 PM 78.8 °F - 62.6 °F 57% 29.86 in 10.0 mi WSW 5.8 mph - N/A   Mostly Cloudy
9:35 PM 78.8 °F - 62.6 °F 57% 29.86 in 10.0 mi Calm Calm - N/A   Overcast
9:55 PM 77.0 °F - 62.6 °F 61% 29.86 in 10.0 mi SSW 3.5 mph - N/A   Overcast
10:15 PM 75.2 °F - 64.4 °F 69% 29.86 in 10.0 mi Calm Calm - N/A   Mostly Cloudy
10:35 PM 75.2 °F - 64.4 °F 69% 29.87 in 10.0 mi Calm Calm - N/A   Mostly Cloudy
10:55 PM 75.2 °F - 64.4 °F 69% 29.87 in 10.0 mi Calm Calm - N/A   Scattered Clouds
11:15 PM 73.4 °F - 68.0 °F 83% 29.89 in 10.0 mi SSE 8.1 mph - N/A   Clear
11:35 PM 71.6 °F - 68.0 °F 88% 29.89 in 10.0 mi SSE 6.9 mph - N/A   Clear
11:55 PM 71.6 °F - 68.0 °F 88% 29.89 in 10.0 mi Calm Calm - N/A   Clear